Torna al catalogo

THORAD DELTA 1 DEB

AttivoSSO
NORAD 42625·DEBRIS·🇺🇸 United States

Lanciato Nov 15, 1974 da Vandenberg Space Force Base

Loading…

Prossimi Passaggi (prossime 24 ore)

TLE

AggiornatoSource: Space-Track

Epoca: Sep 11, 2026, 21:26 UTC

1 42625U 74089GS  26254.89338522  .00000057  00000-0  72475-3 0  9996
2 42625 102.0449 230.8375 0005248  29.7604 358.0860 12.44295626582776

Traccia THORAD DELTA 1 DEB in tempo reale con AllMySat

Download on the App Store